Location: Newark
(45.2500°N, 7.5833°E)
Time: 07:16:49
(UTC+00:00)

A-11 Canister half - Pass Details

Date: 28 January 2020
Orbit: 1524 x 1684 km, 47.3° (Epoch: 20 February)

Event Time Altitude Azimuth Distance (km) Brightness Sun altitude
Rises 21:22:26 0° 290° (WNW) 4,726 12.2 -50.3°
Reaches altitude 10° 21:25:28 10° 289° (WNW) 3,759 11.5 -50.7°
Enters shadow 21:29:45 31° 283° (WNW) 2,489 10.2 -51.4°
